Location: Recife
(8.0585°S, 34.8848°W)
Time: 11:00:26
(UTC-03:00)

Vanguard 2 - Pass Details

Date: 22 April 2026
Orbit: 554 x 2894 km, 32.9° (Epoch: 8 May)

Event Time Altitude Azimuth Distance (km) Brightness Sun altitude
Rises 18:22:27 0° 292° (WNW) 4,019 12.8 -17.4°
Reaches altitude 10° 18:24:48 10° 289° (WNW) 3,303 12.0 -17.9°
Maximum altitude 18:33:26 63° 209° (SSW) 1,995 9.6 -20.0°
Enters shadow 18:43:50 20° 134° (SE) 4,201 10.8 -22.6°
Drops below altitude 10° 18:47:45 10° 130° (SE) 5,247 - -23.5°
Sets 18:52:34 0° 127° (SE) 6,493 - -24.7°
